This is the latest recevied weather packets stored in our database for station/object WX7FGZ-6. If no packets are shown the sender has not sent any weather packets the latest 10 day(s).
| Time | Temp. | Humidity | Pressure | Rain* | Wind** | Luminosity | Snow |
|---|---|---|---|---|---|---|---|
| 1777691286 | 0° C | 54% | 1019.9 hPa | 0 mm | - | - | - |
| 1777690985 | 0° C | 53% | 1019.5 hPa | 0 mm | - | - | - |
| 1777690686 | -0.56° C | 54% | 1019.7 hPa | 0 mm | - | - | - |
| 1777690385 | -0.56° C | 57% | 1019.6 hPa | 0 mm | - | - | - |
| 1777690086 | -1.11° C | 60% | 1019.6 hPa | 0 mm | - | - | - |
| 1777689786 | -1.11° C | 63% | 1019.4 hPa | 0 mm | - | - | - |
| 1777689486 | -0.56° C | 61% | 1019.2 hPa | 0 mm | - | - | - |
| 1777689185 | -0.56° C | 58% | 1019.4 hPa | 0 mm | - | - | - |
| 1777688886 | -0.56° C | 58% | 1019.4 hPa | 0 mm | - | - | - |
| 1777688640 | 0° C | 57% | 1019.6 hPa | 0 mm | - | - | - |
| 1777688367 | 0° C | 57% | 1019.6 hPa | 0 mm | - | - | - |
| 1777688066 | 0° C | 57% | 1019.3 hPa | 0 mm | - | - | - |
| 1777687766 | 0° C | 57% | 1019.1 hPa | 0 mm | - | - | - |
| 1777687487 | 0° C | 54% | 1019.3 hPa | 0 mm | - | - | - |
| 1777687466 | 0° C | 56% | 1018.8 hPa | 0 mm | - | - | - |
| 1777687166 | 0° C | 54% | 1019.3 hPa | 0 mm | - | - | - |
| 1777686866 | 0.56° C | 53% | 1019.2 hPa | 0 mm | - | - | - |
| 1777686566 | 0° C | 55% | 1019.4 hPa | 0 mm | - | - | - |
| 1777686533 | 0.56° C | 55% | 1019.5 hPa | 0 mm | - | - | - |
| 1777686328 | 0.56° C | 55% | 1019.5 hPa | 0 mm | - | - | - |
| 1777686267 | 0.56° C | 55% | 1019.5 hPa | 0 mm | - | - | - |
| 1777685966 | 0.56° C | 55% | 1019.7 hPa | 0 mm | - | - | - |
| 1777685666 | 0.56° C | 54% | 1020 hPa | 0 mm | - | - | - |
| 1777685196 | 0.56° C | 54% | 1019.6 hPa | 0 mm | - | - | - |
| 1777684895 | 0.56° C | 53% | 1019.5 hPa | 0 mm | - | - | - |
* Rain latest hour (hover to see other rain measurements)
** Current wind speed in m/s (hover to see current wind gust speed)